"read_dt","SO2 (ppb)","flags","PMT voltage (V)","lamp voltage (V)","lamp intensity (Hz)","internal temp (C)","react chamber temp (C)","sample flow (l/min)","pres (mmHg)","SO2 bkg (ppb)","SO2 coefficient"
2015-09-02 00:00:00,2063E-3,5C000400,-0724,0820,12393,028.1,045.5,0.256,756.8,01.16,0.508
2015-09-02 00:01:00,2074E-3,5C000400,-0724,0820,12252,028.1,045.5,0.256,756.8,01.16,0.508
2015-09-02 00:02:00,1993E-3,5C000400,-0724,0820,12326,028.1,045.5,0.256,756.8,01.16,0.508
2015-09-02 00:03:00,2058E-3,5C000400,-0724,0820,12250,028.1,045.5,0.256,756.9,01.16,0.508
2015-09-02 00:04:00,2116E-3,5C000400,-0724,0822,12242,028.1,045.5,0.256,756.9,01.16,0.508
2015-09-02 00:05:00,2084E-3,5C000400,-0724,0820,12304,028.2,045.5,0.256,756.8,01.16,0.508
2015-09-02 00:06:00,2039E-3,5C000400,-0724,0820,12209,028.3,045.5,0.256,756.8,01.16,0.508
2015-09-02 00:07:00,2156E-3,5C000400,-0724,0820,12150,028.2,045.5,0.256,756.9,01.16,0.508
2015-09-02 00:08:00,1903E-3,5C000400,-0724,0820,12297,028.1,045.4,0.256,756.9,01.16,0.508
2015-09-02 00:09:00,1974E-3,5C000400,-0724,0820,12185,028.0,045.5,0.256,756.9,01.16,0.508
2015-09-02 00:10:00,1975E-3,5C000400,-0724,0819,12348,028.0,045.5,0.256,757.0,01.16,0.508
2015-09-02 00:11:00,2006E-3,5C000400,-0724,0822,12156,028.0,045.5,0.256,756.8,01.16,0.508
2015-09-02 00:12:00,2010E-3,5C000400,-0724,0820,12153,028.0,045.5,0.256,756.9,01.16,0.508
2015-09-02 00:13:00,1832E-3,5C000400,-0724,0820,12157,028.0,045.5,0.256,756.9,01.16,0.508
2015-09-02 00:14:00,1983E-3,5C000400,-0724,0820,12056,028.1,045.4,0.256,756.9,01.16,0.508
2015-09-02 00:15:00,2099E-3,5C000400,-0724,0821,12374,028.2,045.4,0.256,756.9,01.16,0.508
2015-09-02 00:16:00,1984E-3,5C000400,-0724,0822,12358,028.3,045.5,0.256,756.9,01.16,0.508
2015-09-02 00:17:00,1863E-3,5C000400,-0724,0821,12193,028.3,045.5,0.256,756.8,01.16,0.508
2015-09-02 00:18:00,2049E-3,5C000400,-0724,0821,12250,028.3,045.5,0.256,756.8,01.16,0.508
2015-09-02 00:19:00,2039E-3,5C000400,-0724,0822,12168,028.2,045.5,0.256,756.9,01.16,0.508
2015-09-02 00:20:00,1978E-3,5C000400,-0724,0822,12320,028.2,045.5,0.256,756.9,01.16,0.508
2015-09-02 00:21:00,2131E-3,5C000400,-0724,0822,12299,028.1,045.5,0.256,757.0,01.16,0.508
2015-09-02 00:22:00,2040E-3,5C000400,-0724,0821,12278,028.0,045.5,0.256,756.9,01.16,0.508
2015-09-02 00:23:00,2010E-3,5C000400,-0724,0821,12188,028.0,045.5,0.257,756.9,01.16,0.508
2015-09-02 00:24:00,2027E-3,5C000400,-0724,0820,12108,028.0,045.5,0.256,756.9,01.16,0.508
2015-09-02 00:25:00,1982E-3,5C000400,-0724,0821,12327,028.0,045.5,0.256,756.9,01.16,0.508
2015-09-02 00:26:00,2001E-3,5C000400,-0724,0821,12106,028.0,045.4,0.257,756.9,01.16,0.508
2015-09-02 00:27:00,2075E-3,5C000400,-0724,0821,12300,028.0,045.5,0.256,756.9,01.16,0.508
2015-09-02 00:28:00,2006E-3,5C000400,-0724,0821,12284,028.1,045.5,0.256,756.9,01.16,0.508
2015-09-02 00:29:00,2039E-3,5C000400,-0724,0822,12269,028.1,045.5,0.256,756.9,01.16,0.508
2015-09-02 00:30:00,2042E-3,5C000400,-0724,0822,12315,028.0,045.5,0.256,757.0,01.16,0.508
2015-09-02 00:31:00,2087E-3,5C000400,-0724,0822,12232,028.0,045.4,0.256,757.0,01.16,0.508
2015-09-02 00:32:00,1923E-3,5C000400,-0724,0823,12203,027.9,045.4,0.256,756.9,01.16,0.508
2015-09-02 00:33:00,2054E-3,5C000400,-0724,0822,12239,027.9,045.5,0.256,757.0,01.16,0.508
2015-09-02 00:34:00,2086E-3,5C000400,-0724,0821,12377,027.9,045.5,0.257,757.0,01.16,0.508
2015-09-02 00:35:00,2069E-3,5C000400,-0724,0821,12263,027.9,045.5,0.256,757.0,01.16,0.508
2015-09-02 00:36:00,2108E-3,5C000400,-0724,0822,12252,028.1,045.5,0.257,757.0,01.16,0.508
2015-09-02 00:37:00,2073E-3,5C000400,-0724,0821,12128,028.3,045.5,0.256,756.9,01.16,0.508
2015-09-02 00:38:00,1954E-3,5C000400,-0724,0822,12358,028.4,045.5,0.256,756.9,01.16,0.508
2015-09-02 00:39:00,2009E-3,5C000400,-0724,0822,12293,028.5,045.5,0.256,756.9,01.16,0.508
2015-09-02 00:40:00,2116E-3,5C000400,-0724,0822,12240,028.5,045.5,0.256,756.8,01.16,0.508
2015-09-02 00:41:00,2048E-3,5C000400,-0724,0822,12193,028.5,045.5,0.256,756.9,01.16,0.508
2015-09-02 00:42:00,1896E-3,5C000400,-0724,0822,12360,028.4,045.5,0.256,757.0,01.16,0.508
2015-09-02 00:43:00,2034E-3,5C000400,-0724,0821,12309,028.3,045.5,0.256,757.0,01.16,0.508
2015-09-02 00:44:00,2035E-3,5C000400,-0724,0821,12231,028.2,045.5,0.256,757.0,01.16,0.508
2015-09-02 00:45:00,2003E-3,5C000400,-0724,0820,12321,028.2,045.4,0.256,757.0,01.16,0.508
2015-09-02 00:46:00,2015E-3,5C000400,-0724,0822,12452,028.0,045.5,0.256,757.0,01.16,0.508
2015-09-02 00:47:00,1878E-3,5C000400,-0724,0821,12304,028.1,045.5,0.256,757.0,01.16,0.508
2015-09-02 00:48:00,1966E-3,5C000400,-0724,0821,12220,028.0,045.5,0.256,756.9,01.16,0.508
2015-09-02 00:49:00,2097E-3,5C000400,-0724,0821,12325,028.1,045.5,0.256,756.9,01.16,0.508
2015-09-02 00:50:00,2003E-3,5C000400,-0724,0821,12379,028.2,045.5,0.256,756.9,01.16,0.508
2015-09-02 00:51:00,1884E-3,5C000400,-0724,0821,12227,028.3,045.5,0.256,756.9,01.16,0.508
2015-09-02 00:52:00,1984E-3,5C000400,-0724,0821,12284,028.4,045.5,0.256,756.9,01.16,0.508
2015-09-02 00:53:00,1940E-3,5C000400,-0724,0821,12020,028.5,045.5,0.256,756.9,01.16,0.508
2015-09-02 00:54:00,1876E-3,5C000400,-0724,0821,12152,028.5,045.5,0.256,756.8,01.16,0.508
2015-09-02 00:55:00,2095E-3,5C000400,-0724,0822,12182,028.4,045.5,0.256,756.9,01.16,0.508
2015-09-02 00:56:00,2027E-3,5C000400,-0724,0821,12338,028.3,045.5,0.256,756.9,01.16,0.508
2015-09-02 00:57:00,2076E-3,5C000400,-0724,0821,12335,028.2,045.5,0.255,756.9,01.16,0.508
2015-09-02 00:58:00,2019E-3,5C000400,-0724,0821,12367,028.1,045.5,0.256,757.0,01.16,0.508
2015-09-02 00:59:00,2131E-3,5C000400,-0724,0821,12399,028.1,045.4,0.256,756.8,01.16,0.508
2015-09-02 01:00:00,2040E-3,5C000400,-0724,0821,12296,028.1,045.5,0.256,757.0,01.16,0.508
2015-09-02 01:01:00,1858E-3,5C000400,-0724,0822,12254,028.1,045.5,0.256,756.9,01.16,0.508
2015-09-02 01:02:00,2077E-3,5C000400,-0724,0820,12227,028.2,045.5,0.256,756.8,01.16,0.508
2015-09-02 01:03:00,1976E-3,5C000400,-0724,0821,12354,028.3,045.5,0.256,756.8,01.16,0.508
2015-09-02 01:04:00,2137E-3,5C000400,-0724,0821,12246,028.5,045.5,0.256,756.8,01.16,0.508
2015-09-02 01:05:00,1957E-3,5C000400,-0724,0822,12333,028.6,045.5,0.256,756.8,01.16,0.508
2015-09-02 01:06:00,2009E-3,5C000400,-0724,0821,12186,028.7,045.5,0.256,756.8,01.16,0.508
2015-09-02 01:07:00,2052E-3,5C000400,-0724,0822,12164,028.8,045.5,0.256,756.8,01.16,0.508
2015-09-02 01:08:00,2078E-3,5C000400,-0724,0822,12111,028.9,045.5,0.256,756.7,01.16,0.508
2015-09-02 01:09:00,1852E-3,5C000400,-0724,0823,12499,029.0,045.5,0.255,756.8,01.16,0.508
2015-09-02 01:10:00,1938E-3,5C000400,-0724,0822,12281,029.0,045.5,0.255,756.8,01.16,0.508
2015-09-02 01:11:00,1894E-3,5C000400,-0724,0822,12256,028.9,045.5,0.255,756.8,01.16,0.508
2015-09-02 01:12:00,2027E-3,5C000400,-0724,0821,12193,028.8,045.5,0.255,756.9,01.16,0.508
2015-09-02 01:13:00,1904E-3,5C000400,-0724,0821,12262,028.7,045.4,0.255,756.9,01.16,0.508
2015-09-02 01:14:00,2026E-3,5C000400,-0724,0821,12220,028.6,045.5,0.255,756.9,01.16,0.508
2015-09-02 01:15:00,1995E-3,5C000400,-0724,0822,12367,028.5,045.5,0.255,756.8,01.16,0.508
2015-09-02 01:16:00,2000E-3,5C000400,-0724,0821,12192,028.4,045.4,0.255,757.0,01.16,0.508
2015-09-02 01:17:00,2017E-3,5C000400,-0724,0820,12288,028.3,045.5,0.255,756.9,01.16,0.508
2015-09-02 01:18:00,2018E-3,5C000400,-0724,0821,12218,028.3,045.5,0.255,757.0,01.16,0.508
2015-09-02 01:19:00,2015E-3,5C000400,-0724,0821,12225,028.2,045.5,0.255,756.9,01.16,0.508
2015-09-02 01:20:00,1922E-3,5C000400,-0724,0822,12209,028.2,045.5,0.256,756.9,01.16,0.508
2015-09-02 01:21:00,1888E-3,5C000400,-0724,0821,12174,028.4,045.5,0.256,756.8,01.16,0.508
2015-09-02 01:22:00,2006E-3,5C000400,-0724,0821,12328,028.5,045.5,0.255,756.9,01.16,0.508
2015-09-02 01:23:00,1969E-3,5C000400,-0724,0822,12204,028.5,045.5,0.256,756.8,01.16,0.508
2015-09-02 01:24:00,2073E-3,5C000400,-0724,0821,12285,028.6,045.5,0.256,756.8,01.16,0.508
2015-09-02 01:25:00,1960E-3,5C000400,-0724,0822,12466,028.6,045.5,0.256,756.7,01.16,0.508
2015-09-02 01:26:00,1896E-3,5C000400,-0724,0821,12168,028.5,045.5,0.256,756.7,01.16,0.508
2015-09-02 01:27:00,2010E-3,5C000400,-0724,0821,12365,028.4,045.5,0.255,756.8,01.16,0.508
2015-09-02 01:28:00,2104E-3,5C000400,-0724,0822,12158,028.3,045.4,0.255,756.8,01.16,0.508
2015-09-02 01:29:00,2047E-3,5C000400,-0724,0821,12172,028.2,045.4,0.256,756.8,01.16,0.508
2015-09-02 01:30:00,2097E-3,5C000400,-0724,0821,12197,028.2,045.5,0.256,756.8,01.16,0.508
2015-09-02 01:31:00,2109E-3,5C000400,-0724,0822,12243,028.2,045.5,0.255,756.8,01.16,0.508
2015-09-02 01:32:00,1964E-3,5C000400,-0724,0822,12297,028.1,045.5,0.256,756.8,01.16,0.508
2015-09-02 01:33:00,1935E-3,5C000400,-0724,0821,12391,028.1,045.5,0.256,756.9,01.16,0.508
2015-09-02 01:34:00,2013E-3,5C000400,-0724,0821,12166,028.2,045.5,0.256,756.7,01.16,0.508
2015-09-02 01:35:00,1984E-3,5C000400,-0724,0821,12450,028.3,045.5,0.256,756.8,01.16,0.508
2015-09-02 01:36:00,1885E-3,5C000400,-0724,0822,12221,028.4,045.5,0.256,756.8,01.16,0.508
2015-09-02 01:37:00,2062E-3,5C000400,-0724,0822,12374,028.5,045.5,0.256,756.8,01.16,0.508
2015-09-02 01:38:00,1973E-3,5C000400,-0724,0821,12210,028.6,045.5,0.256,756.8,01.16,0.508
2015-09-02 01:39:00,1981E-3,5C000400,-0724,0822,12340,028.6,045.5,0.255,756.7,01.16,0.508
2015-09-02 01:40:00,2049E-3,5C000400,-0724,0820,12287,028.6,045.5,0.256,756.8,01.16,0.508
2015-09-02 01:41:00,1939E-3,5C000400,-0724,0822,12135,028.5,045.5,0.255,756.7,01.16,0.508
2015-09-02 01:42:00,1942E-3,5C000400,-0724,0822,12329,028.5,045.5,0.256,756.8,01.16,0.508
2015-09-02 01:43:00,1938E-3,5C000400,-0724,0822,12234,028.3,045.5,0.256,756.7,01.16,0.508
2015-09-02 01:44:00,1970E-3,5C000400,-0724,0822,12290,028.2,045.5,0.255,756.8,01.16,0.508
2015-09-02 01:45:00,2019E-3,5C000400,-0724,0821,12247,028.2,045.5,0.256,756.7,01.16,0.508
2015-09-02 01:46:00,2084E-3,5C000400,-0724,0822,12274,028.1,045.5,0.256,756.8,01.16,0.508
2015-09-02 01:47:00,1973E-3,5C000400,-0724,0821,12257,028.1,045.5,0.256,756.8,01.16,0.508
2015-09-02 01:48:00,1900E-3,5C000400,-0724,0821,12282,028.2,045.5,0.256,756.8,01.16,0.508
2015-09-02 01:49:00,2043E-3,5C000400,-0724,0821,12322,028.3,045.5,0.256,756.6,01.16,0.508
2015-09-02 01:50:00,2108E-3,5C000400,-0724,0822,12172,028.4,045.5,0.255,756.8,01.16,0.508
2015-09-02 01:51:00,1911E-3,5C000400,-0724,0822,12346,028.6,045.5,0.256,756.6,01.16,0.508
2015-09-02 01:52:00,2060E-3,5C000400,-0724,0822,12195,028.7,045.5,0.256,756.6,01.16,0.508
2015-09-02 01:53:00,1912E-3,5C000400,-0724,0822,12330,028.8,045.5,0.256,756.6,01.16,0.508
2015-09-02 01:54:00,1960E-3,5C000400,-0724,0822,12279,028.9,045.5,0.256,756.7,01.16,0.508
2015-09-02 01:55:00,1947E-3,5C000400,-0724,0822,12218,029.0,045.5,0.256,756.6,01.16,0.508
2015-09-02 01:56:00,2078E-3,5C000400,-0724,0822,12372,029.0,045.5,0.255,756.6,01.16,0.508
2015-09-02 01:57:00,2174E-3,5C000400,-0724,0822,12364,028.9,045.5,0.255,756.7,01.16,0.508
2015-09-02 01:58:00,1939E-3,5C000400,-0724,0822,12304,028.8,045.4,0.255,756.6,01.16,0.508
2015-09-02 01:59:00,2048E-3,5C000400,-0724,0821,12245,028.7,045.5,0.255,756.7,01.16,0.508
2015-09-02 02:00:00,2060E-3,5C000400,-0724,0822,12224,028.6,045.5,0.255,756.8,01.16,0.508
2015-09-02 02:01:00,2045E-3,5C000400,-0724,0821,12352,028.5,045.5,0.255,756.7,01.16,0.508
2015-09-02 02:02:00,2222E-3,5C000400,-0724,0821,12290,028.4,045.5,0.255,756.8,01.16,0.508
2015-09-02 02:03:00,2031E-3,5C000400,-0724,0822,12289,028.3,045.5,0.255,756.8,01.16,0.508
2015-09-02 02:04:00,2048E-3,5C000400,-0724,0821,12284,028.3,045.5,0.255,756.7,01.16,0.508
2015-09-02 02:05:00,2057E-3,5C000400,-0724,0821,12348,028.3,045.5,0.255,756.7,01.16,0.508
2015-09-02 02:06:00,1994E-3,5C000400,-0724,0823,12367,028.4,045.5,0.256,756.7,01.16,0.508
2015-09-02 02:07:00,2087E-3,5C000400,-0724,0822,12305,028.5,045.5,0.256,756.6,01.16,0.508
2015-09-02 02:08:00,1972E-3,5C000400,-0724,0822,12185,028.6,045.5,0.255,756.7,01.16,0.508
2015-09-02 02:09:00,2044E-3,5C000400,-0724,0822,12290,028.7,045.5,0.256,756.6,01.16,0.508
2015-09-02 02:10:00,2066E-3,5C000400,-0724,0822,12224,028.8,045.5,0.255,756.7,01.16,0.508
2015-09-02 02:11:00,2007E-3,5C000400,-0724,0821,12281,028.7,045.5,0.255,756.8,01.16,0.508
2015-09-02 02:12:00,2014E-3,5C000400,-0724,0821,12320,028.7,045.5,0.255,756.7,01.16,0.508
2015-09-02 02:13:00,2025E-3,5C000400,-0724,0822,12227,028.6,045.5,0.255,756.8,01.16,0.508
2015-09-02 02:14:00,1986E-3,5C000400,-0724,0821,12147,028.5,045.5,0.255,756.7,01.16,0.508
2015-09-02 02:15:00,1925E-3,5C000400,-0724,0822,12284,028.4,045.5,0.255,756.8,01.16,0.508
2015-09-02 02:16:00,1962E-3,5C000400,-0724,0821,12170,028.3,045.5,0.255,756.9,01.16,0.508
2015-09-02 02:17:00,1928E-3,5C000400,-0724,0821,12300,028.2,045.5,0.255,756.9,01.16,0.508
2015-09-02 02:18:00,2033E-3,5C000400,-0724,0822,12423,028.2,045.5,0.256,756.9,01.16,0.508
2015-09-02 02:19:00,1986E-3,5C000400,-0724,0822,12258,028.2,045.5,0.255,756.9,01.16,0.508
2015-09-02 02:20:00,2056E-3,5C000400,-0724,0821,12268,028.3,045.5,0.256,756.8,01.16,0.508
2015-09-02 02:21:00,2073E-3,5C000400,-0724,0822,12216,028.3,045.5,0.256,756.8,01.16,0.508
2015-09-02 02:22:00,1876E-3,5C000400,-0724,0822,12235,028.4,045.5,0.255,756.8,01.16,0.508
2015-09-02 02:23:00,1915E-3,5C000400,-0724,0823,12291,028.5,045.5,0.256,756.8,01.16,0.508
2015-09-02 02:24:00,2049E-3,5C000400,-0724,0822,12245,028.4,045.5,0.256,756.7,01.16,0.508
2015-09-02 02:25:00,2041E-3,5C000400,-0724,0822,12288,028.3,045.5,0.256,756.8,01.16,0.508
2015-09-02 02:26:00,2107E-3,5C000400,-0724,0822,12272,028.2,045.5,0.256,756.8,01.16,0.508
2015-09-02 02:27:00,2137E-3,5C000400,-0724,0821,12309,028.2,045.5,0.256,756.8,01.16,0.508
2015-09-02 02:28:00,2066E-3,5C000400,-0724,0822,12395,028.1,045.5,0.255,756.8,01.16,0.508
2015-09-02 02:29:00,1990E-3,5C000400,-0724,0822,12380,028.1,045.5,0.256,756.8,01.16,0.508
2015-09-02 02:30:00,1908E-3,5C000400,-0724,0821,12090,028.1,045.5,0.256,756.8,01.16,0.508
2015-09-02 02:31:00,2034E-3,5C000400,-0724,0822,12259,028.1,045.5,0.256,756.8,01.16,0.508
2015-09-02 02:32:00,2043E-3,5C000400,-0724,0822,12257,028.3,045.5,0.256,756.7,01.16,0.508
2015-09-02 02:33:00,2116E-3,5C000400,-0724,0821,12307,028.4,045.5,0.255,756.7,01.16,0.508
2015-09-02 02:34:00,1954E-3,5C000400,-0724,0821,12188,028.4,045.5,0.256,756.7,01.16,0.508
2015-09-02 02:35:00,2005E-3,5C000400,-0724,0821,12279,028.5,045.5,0.256,756.6,01.16,0.508
2015-09-02 02:36:00,2117E-3,5C000400,-0724,0821,12406,028.4,045.5,0.256,756.6,01.16,0.508
2015-09-02 02:37:00,2044E-3,5C000400,-0724,0821,12109,028.3,045.5,0.256,756.7,01.16,0.508
2015-09-02 02:38:00,2045E-3,5C000400,-0724,0822,12399,028.2,045.4,0.256,756.8,01.16,0.508
2015-09-02 02:39:00,2126E-3,5C000400,-0724,0821,12231,028.2,045.5,0.256,756.7,01.16,0.508
2015-09-02 02:40:00,2008E-3,5C000400,-0724,0821,12302,028.1,045.5,0.256,756.7,01.16,0.508
2015-09-02 02:41:00,1924E-3,5C000400,-0724,0821,12325,028.1,045.5,0.256,756.7,01.16,0.508
2015-09-02 02:42:00,2145E-3,5C000400,-0724,0822,12267,028.1,045.4,0.256,756.7,01.16,0.508
2015-09-02 02:43:00,1971E-3,5C000400,-0724,0822,12335,028.1,045.4,0.256,756.8,01.16,0.508
2015-09-02 02:44:00,2031E-3,5C000400,-0724,0821,12161,028.2,045.4,0.256,756.8,01.16,0.508
2015-09-02 02:45:00,1982E-3,5C000400,-0724,0821,12458,028.2,045.5,0.256,756.7,01.16,0.508
2015-09-02 02:46:00,1999E-3,5C000400,-0724,0822,12166,028.2,045.5,0.256,756.8,01.16,0.508
2015-09-02 02:47:00,1986E-3,5C000400,-0724,0822,12210,028.1,045.5,0.256,756.8,01.16,0.508
2015-09-02 02:48:00,2111E-3,5C000400,-0724,0821,12315,028.1,045.4,0.256,756.9,01.16,0.508
2015-09-02 02:49:00,2129E-3,5C000400,-0724,0822,12210,028.0,045.4,0.256,756.9,01.16,0.508
2015-09-02 02:50:00,1996E-3,5C000400,-0724,0821,12241,028.0,045.4,0.256,756.9,01.16,0.508
2015-09-02 02:51:00,2062E-3,5C000400,-0724,0821,12276,027.9,045.4,0.256,756.9,01.16,0.508
2015-09-02 02:52:00,1916E-3,5C000400,-0724,0822,12257,028.0,045.4,0.256,756.9,01.16,0.508
2015-09-02 02:53:00,1950E-3,5C000400,-0724,0822,12266,028.0,045.5,0.256,756.8,01.16,0.508
2015-09-02 02:54:00,2021E-3,5C000400,-0724,0822,12179,028.2,045.5,0.256,756.8,01.16,0.508
2015-09-02 02:55:00,2013E-3,5C000400,-0724,0822,12182,028.2,045.5,0.256,756.9,01.16,0.508
2015-09-02 02:56:00,2034E-3,5C000400,-0724,0823,12286,028.1,045.5,0.256,756.9,01.16,0.508
2015-09-02 02:57:00,2060E-3,5C000400,-0724,0823,12204,028.1,045.5,0.256,756.9,01.16,0.508
2015-09-02 02:58:00,1963E-3,5C000400,-0724,0822,12257,028.0,045.4,0.256,756.8,01.16,0.508
2015-09-02 02:59:00,1968E-3,5C000400,-0724,0822,12343,027.9,045.5,0.256,756.9,01.16,0.508
2015-09-02 03:00:00,1854E-3,5C000400,-0724,0822,12088,027.9,045.5,0.256,756.8,01.16,0.508
2015-09-02 03:01:00,1946E-3,5C000400,-0724,0821,12122,027.9,045.5,0.256,756.9,01.16,0.508
2015-09-02 03:02:00,1951E-3,5C000400,-0724,0822,12369,027.9,045.5,0.256,756.9,01.16,0.508
2015-09-02 03:03:00,1987E-3,5C000400,-0724,0821,12292,028.0,045.4,0.256,756.8,01.16,0.508
2015-09-02 03:04:00,1979E-3,5C000400,-0724,0821,12249,028.1,045.4,0.256,756.9,01.16,0.508
2015-09-02 03:05:00,1950E-3,5C000400,-0724,0822,12237,028.3,045.5,0.256,756.8,01.16,0.508
2015-09-02 03:06:00,1995E-3,5C000400,-0724,0822,12162,028.3,045.5,0.256,756.8,01.16,0.508
2015-09-02 03:07:00,1963E-3,5C000400,-0724,0822,12263,028.2,045.5,0.256,757.0,01.16,0.508
2015-09-02 03:08:00,1979E-3,5C000400,-0724,0821,12246,028.1,045.5,0.256,757.0,01.16,0.508
2015-09-02 03:09:00,1954E-3,5C000400,-0724,0822,12280,028.1,045.5,0.256,756.8,01.16,0.508
2015-09-02 03:10:00,1955E-3,5C000400,-0724,0821,12239,028.0,045.5,0.256,756.7,01.16,0.508
2015-09-02 03:11:00,2086E-3,5C000400,-0724,0822,12426,027.9,045.5,0.256,756.9,01.16,0.508
2015-09-02 03:12:00,1923E-3,5C000400,-0724,0822,12257,027.9,045.5,0.256,756.9,01.16,0.508
2015-09-02 03:13:00,1923E-3,5C000400,-0724,0821,12221,027.9,045.5,0.256,757.0,01.16,0.508
2015-09-02 03:14:00,2021E-3,5C000400,-0724,0821,12298,027.9,045.5,0.256,757.0,01.16,0.508
2015-09-02 03:15:00,2040E-3,5C000400,-0724,0822,12302,027.9,045.5,0.256,756.9,01.16,0.508
2015-09-02 03:16:00,1895E-3,5C000400,-0724,0822,12275,027.9,045.5,0.256,757.0,01.16,0.508
2015-09-02 03:17:00,1950E-3,5C000400,-0724,0821,12260,028.0,045.5,0.257,757.0,01.16,0.508
"read_dt","SO2 (ppb)","flags","PMT voltage (V)","lamp voltage (V)","lamp intensity (Hz)","internal temp (C)","react chamber temp (C)","sample flow (l/min)","pres (mmHg)","SO2 bkg (ppb)","SO2 coefficient"
2015-09-02 03:49:00,1880E-3,5C000404,-0724,0818,12518,027.6,038.3,0.257,758.4,01.16,0.508
2015-09-02 03:50:00,1970E-3,5C000404,-0724,0819,12343,027.6,039.0,0.257,758.3,01.16,0.508
2015-09-02 03:51:00,2004E-3,5C000404,-0724,0820,12251,027.7,039.8,0.257,758.4,01.16,0.508
2015-09-02 03:52:00,2095E-3,5C000404,-0724,0820,12243,027.7,040.6,0.256,757.5,01.16,0.508
2015-09-02 03:53:00,1958E-3,5C000404,-0724,0820,12278,027.8,041.5,0.256,757.5,01.16,0.508
2015-09-02 03:54:00,2070E-3,5C000404,-0724,0820,12270,027.9,042.3,0.256,757.4,01.16,0.508
2015-09-02 03:55:00,2061E-3,5C000400,-0724,0821,12350,027.9,043.1,0.256,757.4,01.16,0.508
2015-09-02 03:56:00,1955E-3,5C000400,-0724,0821,12227,028.0,043.8,0.256,757.4,01.16,0.508
2015-09-02 03:57:00,1922E-3,5C000400,-0724,0821,12310,028.1,044.6,0.256,757.4,01.16,0.508
2015-09-02 03:58:00,2035E-3,5C000400,-0724,0821,12307,028.2,045.2,0.256,757.2,01.16,0.508
2015-09-02 03:59:00,1964E-3,5C000400,-0724,0821,12308,028.2,045.6,0.256,757.3,01.16,0.508
2015-09-02 04:00:00,1968E-3,5C000400,-0724,0822,12235,028.3,045.6,0.256,757.4,01.16,0.508
2015-09-02 04:01:00,1998E-3,5C000400,-0724,0822,12326,028.4,045.5,0.256,757.2,01.16,0.508
2015-09-02 04:02:00,2061E-3,5C000400,-0724,0822,12190,028.5,045.5,0.256,757.2,01.16,0.508
2015-09-02 04:03:00,2033E-3,5C000400,-0724,0823,12261,028.6,045.5,0.256,757.2,01.16,0.508
2015-09-02 04:04:00,2014E-3,5C000400,-0724,0822,12207,028.6,045.5,0.256,757.2,01.16,0.508
2015-09-02 04:05:00,2033E-3,5C000400,-0724,0822,12372,028.7,045.5,0.256,757.2,01.16,0.508
2015-09-02 04:06:00,2037E-3,5C000400,-0724,0823,12059,028.8,045.5,0.256,757.2,01.16,0.508
2015-09-02 04:07:00,1951E-3,5C000400,-0724,0823,12129,028.9,045.5,0.255,757.2,01.16,0.508
2015-09-02 04:08:00,2043E-3,5C000400,-0724,0822,12263,028.9,045.5,0.256,757.2,01.16,0.508
2015-09-02 04:09:00,1915E-3,5C000400,-0724,0822,12115,029.0,045.5,0.255,757.2,01.16,0.508
2015-09-02 04:10:00,1936E-3,5C000400,-0724,0822,12314,029.1,045.5,0.255,757.2,01.16,0.508
2015-09-02 04:11:00,2078E-3,5C000400,-0724,0823,12376,029.2,045.5,0.255,757.1,01.16,0.508
2015-09-02 04:12:00,2009E-3,5C000400,-0724,0822,12176,029.3,045.5,0.255,757.2,01.16,0.508
2015-09-02 04:13:00,1957E-3,5C000400,-0724,0822,12246,029.3,045.5,0.255,757.2,01.16,0.508
2015-09-02 04:14:00,2005E-3,5C000400,-0724,0823,12299,029.4,045.5,0.254,757.2,01.16,0.508
2015-09-02 04:15:00,1748E-3,5C000400,-0724,0823,12331,029.5,045.5,0.255,757.2,01.16,0.508
2015-09-02 04:16:00,1999E-3,5C000400,-0724,0823,12277,029.5,045.5,0.254,757.3,01.16,0.508
2015-09-02 04:17:00,2000E-3,5C000400,-0724,0823,12303,029.6,045.5,0.255,757.4,01.16,0.508
2015-09-02 04:18:00,1999E-3,5C000400,-0724,0822,12164,029.7,045.5,0.254,757.3,01.16,0.508
2015-09-02 04:19:00,2038E-3,5C000400,-0724,0822,12294,029.7,045.5,0.254,757.3,01.16,0.508
2015-09-02 04:20:00,1998E-3,5C000400,-0724,0822,12345,029.8,045.5,0.254,757.3,01.16,0.508
2015-09-02 04:21:00,2061E-3,5C000400,-0724,0823,12394,029.9,045.5,0.254,757.3,01.16,0.508
2015-09-02 04:22:00,1887E-3,5C000400,-0724,0822,12057,029.9,045.5,0.254,757.3,01.16,0.508
2015-09-02 04:23:00,1961E-3,5C000400,-0724,0822,12374,030.0,045.5,0.254,757.2,01.16,0.508
2015-09-02 04:24:00,1848E-3,5C000400,-0724,0822,12388,030.1,045.5,0.254,757.2,01.16,0.508
2015-09-02 04:25:00,2052E-3,5C000400,-0724,0823,12321,030.1,045.5,0.254,757.2,01.16,0.508
2015-09-02 04:26:00,1989E-3,5C000400,-0724,0823,12213,030.2,045.5,0.253,757.3,01.16,0.508
2015-09-02 04:27:00,1938E-3,5C000400,-0724,0823,12246,030.2,045.5,0.253,757.2,01.16,0.508
2015-09-02 04:28:00,2059E-3,5C000400,-0724,0822,12360,030.3,045.5,0.253,757.2,01.16,0.508
2015-09-02 04:29:00,2030E-3,5C000400,-0724,0822,12240,030.4,045.5,0.252,757.2,01.16,0.508
2015-09-02 04:30:00,2001E-3,5C000400,-0724,0822,12394,030.4,045.5,0.253,757.2,01.16,0.508
2015-09-02 04:31:00,1941E-3,5C000400,-0724,0823,12279,030.5,045.5,0.253,757.2,01.16,0.508
2015-09-02 04:32:00,1958E-3,5C000400,-0724,0822,12203,030.5,045.5,0.253,757.2,01.16,0.508
2015-09-02 04:33:00,1977E-3,5C000400,-0724,0823,12254,030.6,045.5,0.253,757.2,01.16,0.508
2015-09-02 04:34:00,2029E-3,5C000400,-0724,0822,12381,030.6,045.5,0.252,757.2,01.16,0.508
2015-09-02 04:35:00,1955E-3,5C000400,-0724,0822,12343,030.7,045.5,0.252,757.2,01.16,0.508
2015-09-02 04:36:00,2087E-3,5C000400,-0724,0823,12303,030.8,045.5,0.252,757.2,01.16,0.508
2015-09-02 04:37:00,2044E-3,5C000400,-0724,0822,12256,030.8,045.5,0.252,757.1,01.16,0.508
2015-09-02 04:38:00,2034E-3,5C000400,-0724,0823,12301,030.8,045.5,0.252,757.1,01.16,0.508
2015-09-02 04:39:00,2158E-3,5C000400,-0724,0822,12300,030.9,045.6,0.252,757.1,01.16,0.508
2015-09-02 04:40:00,2150E-3,5C000400,-0724,0822,12281,030.8,045.5,0.252,757.1,01.16,0.508
2015-09-02 04:41:00,1927E-3,5C000400,-0724,0822,12165,030.7,045.5,0.252,757.0,01.16,0.508
2015-09-02 04:42:00,2053E-3,5C000400,-0724,0823,12277,030.6,045.5,0.252,757.1,01.16,0.508
2015-09-02 04:43:00,2024E-3,5C000400,-0724,0822,12430,030.4,045.5,0.252,757.1,01.16,0.508
2015-09-02 04:44:00,2075E-3,5C000400,-0724,0822,12310,030.3,045.5,0.252,757.1,01.16,0.508
2015-09-02 04:45:00,2024E-3,5C000400,-0724,0822,12354,030.2,045.5,0.252,757.1,01.16,0.508
2015-09-02 04:46:00,1937E-3,5C000400,-0724,0822,12254,030.0,045.5,0.252,757.1,01.16,0.508
2015-09-02 04:47:00,1894E-3,5C000400,-0724,0823,12428,029.9,045.5,0.252,757.1,01.16,0.508
2015-09-02 04:48:00,2119E-3,5C000400,-0724,0822,12243,029.7,045.5,0.252,757.1,01.16,0.508
2015-09-02 04:49:00,1949E-3,5C000400,-0724,0822,12296,029.6,045.5,0.252,757.2,01.16,0.508